YAM-11

导读

YAM-11(NORAD编号68991)是由美国Loft Orbital公司运营的微型卫星,延续了YAM系列卫星“共享在轨平台、搭载多用户载荷”的设计定位。作为商业共享卫星平台的一员,它为不同客户提供在轨承载服务,可搭载技术试验、遥感观测、物联网通信等多种有效载荷,降低了中小航天任务的发射成本。该卫星获得北美防空司令部分配的专属NORAD编号,纳入全球空间目标监测体系,目前运行在近地轨道,为商业航天、科研机构提供灵活的太空在轨验证与应用服务。

Basic Information
目录编号:
68991
目录名称:
YAM-11
国际标识:
2026-100M
轨道中心:
EARTH
卫星名称:
YAM-11
卫星全名:
YAM-11
卫星状态:
在轨 (已飞行125 天)
发射日期:
2026-05-03 UTC
国别 :
美国 (US)
星等 :
--
Orbit Information
数据来源 国际轨道数据
星历时间: 2026-09-05T00:11:27+0800
18小时前
查看轨道信息
半长轴: 6974.657km
偏心率: 0.0002233
轨道倾角: 97.774°
近地点辐角 91.629°
升交点赤经 143.648°
平近点角 268.519°
近地点: 594.962km
远地点: 598.078km
周期: 96.615分钟
每日圈数: 14.904539
Detailed Information
使用方式:
暂无
2D Orbit Map
3D Orbit Map
Orbit Altitude Analysis Chart
Orbit Inclination Analysis Chart
Orbit Comprehensive Analysis Chart
View Comprehensive Chart
Conjunction Data List
Event ID Objects TCA Miss Dist (km) Collision Risk Probability Collision Risk Index (CRI) Action
CDM_260906-183502-627306-899121
CZ-4 DEB (26273)
YAM-11 (68991)
2026-09-06T
18:35:04+0000
1.076 km
极远距离
1.739552E-5 中风险 0.6
CDM_260906-144103-954606-899121
YAM-11 (68991)
2026-09-06T
14:41:09+0000
1.360 km
极远距离
9.406458E-6 低风险 0.54
CDM_260907-095103-023206-899121
YAM-11 (68991)
2026-09-07T
09:51:58+0000
2.464 km
极远距离
9.17807E-7 极低风险 0.34